Theta_e
310 311 311 312 312 312 314 316 318 316 315 312 307 307 302 301 299 304 309 312 311 304 296 298 296 295 297 300 298 298 296 296 295 296 296 296 297 295 295 295 293 293 293 291 290 292 288 288 288 287 288 288 290 291 291 291 291 291 286 289 289 293 285 282 281 282 281 285 285 286 285 286 286 285 282 283 284 284 283 282 280 279 279 279 278 278 282
309 309 309 310 311 312 313 314 316 314 313 311 308 305 300 301 298 301 308 312 310 301 291 291 293 296 296 299 298 298 297 296 293 294 296 296 295 295 293 294 296 293 293 292 291 294 288 291 290 288 287 290 291 290 291 293 291 291 290 289 293 287 286 286 279 277 281 282 285 285 286 284 282 281 281 282 282 280 281 280 281 280 282 283 280 276 282
307 307 307 308 309 310 311 312 311 308 308 307 308 302 300 298 299 299 303 308 306 296 299 295 293 294 295 295 295 295 296 297 299 297 296 297 296 295 293 296 295 294 294 293 293 293 293 288 291 288 286 289 290 288 288 292 291 292 292 295 294 288 285 285 281 279 277 276 277 280 282 283 282 282 281 282 284 283 283 281 281 280 283 283 279 281 285
306 306 307 307 307 307 308 307 306 306 305 305 304 300 299 295 289 295 297 302 301 300 298 297 296 294 294 293 295 297 294 295 296 299 297 299 296 297 294 293 296 292 292 290 291 291 292 291 288 288 287 287 288 288 287 290 292 292 294 292 293 287 285 286 286 285 283 282 281 283 283 282 281 280 281 284 284 285 285 281 279 280 281 282 284 284 282
305 306 306 307 306 307 307 305 305 305 304 303 300 297 298 296 290 290 288 296 297 295 298 295 296 294 297 290 295 293 295 295 295 299 294 297 297 294 295 294 293 291 292 291 291 292 291 290 288 288 287 286 286 288 288 288 290 293 293 292 289 286 286 286 285 284 283 283 284 284 287 285 284 285 285 285 285 283 284 282 281 284 280 278 285 282 282
305 304 305 306 306 305 305 304 304 304 303 304 302 294 295 291 292 295 296 291 287 290 292 296 295 295 297 293 296 294 294 294 291 295 297 295 298 294 293 294 296 294 293 293 288 290 290 289 289 288 287 287 288 288 289 288 289 291 289 289 290 286 286 288 287 287 288 288 287 285 286 287 287 287 287 286 286 283 281 282 284 283 283 281 283 282 281
304 304 304 304 303 303 304 304 303 303 303 303 298 293 293 293 290 292 295 291 291 292 293 295 295 294 296 293 294 292 293 293 295 292 291 294 293 297 289 292 294 295 295 293 289 290 286 286 290 288 288 287 286 286 288 288 287 288 287 288 286 288 285 287 286 286 287 287 285 284 285 284 284 284 285 286 285 283 283 283 285 284 284 285 281 280 282
304 304 304 303 303 302 302 303 303 303 303 302 295 292 291 289 290 288 291 291 289 289 292 294 294 292 294 290 293 294 293 292 294 292 293 288 292 295 293 294 294 295 293 294 291 292 292 291 288 289 289 287 287 287 288 285 285 286 286 287 287 288 285 288 285 284 284 284 282 282 284 284 283 284 284 283 281 281 282 283 282 281 281 281 281 280 280
305 304 304 304 303 303 302 302 302 303 305 296 293 291 292 291 290 292 290 287 287 287 288 291 292 289 291 290 291 291 293 293 295 293 296 295 291 293 293 295 292 292 293 293 294 296 293 290 290 291 291 288 289 289 287 289 285 286 285 286 286 288 284 282 282 282 281 279 280 280 280 280 280 282 283 279 279 277 279 278 281 281 280 281 279 278 280
305 305 304 304 303 303 302 302 302 302 303 294 292 289 293 291 292 292 291 285 290 286 287 289 289 285 290 292 292 291 292 292 295 290 293 293 294 295 296 294 293 288 291 291 294 295 293 293 288 289 288 289 287 289 288 291 289 285 286 285 285 286 281 280 279 279 281 275 277 277 278 279 278 279 281 281 281 283 280 280 281 283 284 280 277 280 286
306 305 305 304 304 303 303 302 301 301 298 293 290 288 289 289 289 289 290 285 285 286 287 286 286 289 291 293 291 293 291 292 294 289 287 291 292 291 296 294 291 287 289 291 291 291 289 288 288 289 289 288 287 286 288 287 286 287 286 282 279 284 283 281 282 279 275 271 274 277 276 272 276 282 286 283 281 281 279 280 280 281 283 280 283 282 278
306 306 305 305 304 304 303 302 302 300 299 293 293 289 291 292 290 289 286 284 285 286 286 285 287 288 289 291 292 290 290 291 291 294 290 288 288 289 292 292 292 286 290 289 290 289 288 290 289 289 287 286 286 286 287 288 285 287 287 286 282 283 284 281 279 277 272 272 274 274 270 275 280 276 277 279 284 283 282 283 281 279 280 280 278 278 278
307 306 305 305 304 304 304 303 303 301 298 292 292 289 290 291 290 288 286 285 283 284 283 284 287 288 288 289 288 289 289 291 292 293 292 291 287 287 289 289 291 290 290 289 291 291 286 282 282 282 283 284 284 285 284 283 283 285 284 286 285 282 283 279 276 274 273 271 274 270 273 277 276 276 275 277 276 276 276 274 276 276 278 279 278 280 280
307 306 306 305 305 304 304 304 303 302 300 296 291 290 290 290 288 285 285 284 284 285 285 285 284 285 285 286 287 285 286 286 286 289 289 287 289 288 286 287 288 289 290 292 289 287 283 283 280 282 281 281 281 282 281 280 280 281 282 283 283 285 283 281 277 280 271 275 273 276 279 279 277 274 274 276 276 275 274 271 275 278 277 277 277 278 279
307 307 306 305 305 305 304 304 304 303 300 299 292 290 290 290 290 287 285 285 281 283 285 282 284 285 286 285 287 286 285 284 287 285 283 284 283 284 284 285 285 289 289 289 285 285 283 280 275 276 275 276 274 277 279 277 278 278 280 281 282 284 283 283 281 278 278 272 272 271 271 272 278 280 277 278 278 278 277 276 272 277 272 277 277 277 278
306 306 306 306 305 305 305 304 304 304 302 299 292 289 290 290 288 288 285 283 282 278 281 286 283 284 284 284 286 286 285 285 285 284 283 283 282 284 284 285 285 286 285 285 284 283 281 279 275 278 273 276 277 274 273 275 275 277 279 281 282 282 283 281 281 277 274 273 273 272 271 274 280 277 275 274 275 278 277 272 269 275 272 276 277 277 277
305 305 306 306 306 305 305 305 305 304 303 299 290 290 288 290 287 285 284 283 283 279 283 281 284 283 281 281 283 283 285 285 286 283 282 282 282 281 284 285 285 286 284 285 281 280 277 272 272 273 274 276 274 274 274 272 273 271 277 279 279 278 277 279 276 275 276 274 272 272 275 274 276 273 275 275 276 278 276 263 263 268 272 273 275 276 276
305 305 305 305 306 306 305 305 305 305 303 301 294 290 289 291 289 287 283 281 280 278 281 282 282 282 280 281 280 282 281 281 281 283 282 282 279 280 281 283 282 286 286 283 281 280 278 274 275 274 275 279 276 277 269 275 267 269 272 276 274 277 275 277 274 277 277 278 274 273 274 278 274 274 275 274 275 273 264 267 269 270 272 272 277 276 277
304 304 305 305 305 305 306 305 304 304 304 302 297 294 292 293 291 289 283 283 279 275 280 281 283 282 283 282 280 281 281 283 283 282 278 280 280 282 282 281 285 282 285 280 281 278 279 276 276 275 276 275 276 272 277 271 270 273 274 272 272 272 273 272 276 273 275 276 274 274 277 279 274 273 275 276 276 264 269 275 273 275 274 274 276 277 275
303 303 304 304 305 305 305 305 305 305 305 303 298 292 294 293 293 292 287 282 281 278 280 280 282 282 283 282 280 278 279 280 279 281 281 280 281 283 284 280 284 280 277 283 278 279 279 276 277 273 269 274 273 277 266 269 276 270 275 276 275 275 274 270 275 275 272 272 271 271 268 277 277 277 274 275 271 272 276 272 274 275 276 274 274 275 275
303 303 303 304 304 305 304 304 304 304 305 304 300 294 291 293 293 293 292 287 282 278 280 282 282 283 283 282 284 283 281 281 280 280 281 279 283 285 277 279 282 281 277 283 277 278 277 272 271 272 275 277 276 274 268 270 271 275 275 273 272 276 268 265 271 277 269 272 270 270 278 277 279 279 274 275 279 277 276 277 275 274 274 275 274 274 275
302 303 303 304 304 304 304 304 305 304 304 304 301 296 291 292 292 293 292 289 283 280 278 283 284 283 284 285 285 285 284 283 283 284 279 278 280 282 279 283 284 282 279 277 274 271 271 268 268 268 272 269 267 268 267 266 265 268 266 269 268 276 272 273 270 273 270 269 275 275 275 277 280 281 278 280 280 276 276 277 278 276 274 274 274 275 275
302 303 303 303 304 304 303 304 304 304 303 304 301 295 291 292 291 293 291 287 287 288 288 284 284 284 287 286 286 286 285 285 284 282 283 282 279 280 278 281 282 281 277 280 281 278 276 271 270 271 263 267 274 266 265 266 262 264 268 274 274 273 274 273 271 270 273 274 274 274 274 276 277 279 278 279 279 276 275 275 275 275 276 275 276 276 275
302 302 302 302 303 303 303 303 303 302 303 304 301 295 293 293 292 291 289 289 286 283 285 285 283 280 282 283 286 286 285 284 286 285 285 287 281 276 278 279 281 278 274 277 279 276 270 264 267 265 267 271 267 263 269 267 267 266 266 268 272 272 273 272 272 272 271 268 275 274 276 276 277 279 279 277 277 277 277 276 277 277 275 275 276 276 276
301 301 302 302 302 302 302 302 302 303 303 303 301 299 294 291 292 291 287 282 283 283 278 282 284 287 286 285 285 283 285 286 287 286 284 285 284 281 279 280 281 281 279 278 277 274 266 269 269 266 269 273 276 266 270 270 267 273 263 269 269 271 275 272 273 272 273 271 273 274 274 276 278 279 278 278 279 278 276 278 278 277 275 275 276 274 273
301 301 301 302 302 302 302 302 302 302 302 302 300 295 293 292 293 292 291 290 287 285 279 278 282 287 285 284 284 287 284 287 286 284 284 284 284 285 282 280 278 279 278 279 278 277 267 264 258 259 268 270 276 262 261 272 269 272 271 271 275 272 275 265 271 272 273 273 272 273 273 275 275 276 276 278 279 279 277 276 276 275 275 274 273 273 275
300 301 301 301 301 302 302 302 302 302 302 302 299 296 295 294 294 291 289 288 285 279 282 279 283 283 283 283 285 283 284 286 285 284 283 282 282 281 281 279 279 278 277 274 272 269 260 260 267 271 265 264 271 265 269 268 271 267 266 273 275 273 272 273 271 267 268 269 272 273 267 267 275 276 277 278 278 277 276 275 273 273 273 273 273 274 273
299 301 301 301 301 301 302 302 301 302 302 302 299 296 296 294 294 293 294 291 288 280 279 278 280 282 284 280 285 286 286 286 286 284 283 281 281 282 281 280 277 276 275 275 270 270 268 271 270 268 268 267 270 267 274 272 271 265 266 272 275 274 276 274 271 272 270 273 275 276 278 277 276 278 278 278 278 276 275 276 276 275 275 275 274 274 272
299 300 301 300 301 301 301 301 301 302 303 300 295 294 293 295 295 295 295 295 291 283 279 278 277 275 278 282 285 284 284 286 284 284 283 280 281 281 281 280 280 278 278 275 275 272 267 270 275 270 267 274 268 260 268 264 265 267 272 276 275 277 277 277 277 275 274 275 275 277 276 276 277 277 276 277 277 277 276 277 277 277 276 275 274 275 276
299 300 300 300 300 300 300 300 301 301 300 295 290 288 286 286 294 293 295 294 290 287 283 279 276 279 280 279 279 282 282 283 283 283 282 281 280 280 280 280 279 281 277 276 276 270 274 271 275 276 275 278 272 266 268 262 264 270 277 277 278 278 277 277 276 276 275 275 274 275 276 277 277 277 275 275 276 277 277 277 277 276 276 274 274 274 274
300 299 299 300 300 300 301 301 301 301 300 291 289 282 282 279 288 296 296 293 293 289 284 285 280 283 276 277 278 280 283 283 282 282 282 282 281 280 278 279 277 280 275 274 274 275 274 269 273 273 277 278 277 267 266 266 264 264 276 278 278 278 277 276 276 276 276 274 274 274 274 276 277 276 276 275 273 274 276 275 275 275 276 272 273 275 275
299 299 299 299 300 300 301 301 300 300 295 290 288 285 284 285 289 295 296 294 291 287 284 280 279 279 277 282 279 281 282 282 283 282 282 283 279 280 278 281 278 280 281 274 273 272 271 273 272 272 274 280 278 265 269 266 268 272 278 278 277 277 276 275 276 276 275 276 274 274 274 276 275 276 278 280 276 275 275 276 277 274 275 275 274 273 273
299 299 299 299 299 300 300 301 301 298 292 293 293 292 294 296 297 297 296 293 290 285 286 281 276 279 277 277 278 275 280 280 279 281 277 282 279 279 274 280 279 277 287 279 274 272 273 275 274 272 275 277 273 274 273 272 274 278 279 279 278 276 276 275 276 277 278 277 277 275 275 277 278 278 278 279 277 274 274 275 275 272 269 269 271 273 272
299 299 299 299 299 299 300 301 300 299 295 289 284 283 287 295 297 297 294 290 286 285 285 280 277 275 271 274 272 275 283 280 279 282 276 282 279 280 274 279 278 277 277 278 278 275 273 276 273 272 276 273 274 271 271 275 279 278 279 279 279 276 275 274 275 276 277 277 277 279 280 280 280 275 273 275 276 273 273 273 269 270 271 271 272 273 274
299 299 299 299 299 299 299 299 296 291 286 287 285 287 292 297 297 296 293 289 283 280 280 279 280 274 271 268 267 269 279 281 278 281 278 280 283 278 279 276 279 277 277 284 276 279 278 278 278 273 271 277 275 272 274 277 278 279 279 279 279 277 275 275 277 278 278 275 275 276 277 277 276 276 276 275 275 273 271 271 271 273 272 272 273 273 272
298 299 299 299 299 298 292 293 288 285 284 285 284 293 297 298 297 293 288 286 285 280 279 278 280 274 275 267 266 270 283 277 280 280 280 281 277 281 280 279 274 279 283 280 275 280 277 282 278 271 279 274 272 276 277 280 279 279 279 279 280 279 279 279 280 280 274 274 275 275 275 275 275 276 277 277 276 273 272 271 269 268 272 273 274 274 272
297 297 298 297 291 287 285 285 287 286 285 288 293 297 295 292 289 288 287 286 285 286 279 278 275 272 275 271 270 272 279 273 283 278 281 278 276 281 279 278 274 281 278 276 277 276 279 285 278 274 276 273 275 280 281 281 280 279 279 280 281 281 280 280 280 279 274 269 270 272 273 273 273 274 274 275 275 274 270 271 273 271 270 272 273 274 274
298 297 288 285 284 281 281 283 284 288 295 295 293 287 284 285 280 282 283 280 283 284 279 280 274 273 272 274 269 280 279 273 281 276 279 281 278 275 280 278 277 280 269 275 277 283 278 277 276 275 276 280 281 281 282 282 281 281 280 281 281 281 281 280 277 275 273 274 273 273 271 267 269 272 272 273 274 273 274 275 275 275 274 274 275 275 274
293 286 285 284 281 278 279 280 292 295 292 289 286 280 278 280 278 274 275 279 280 276 280 279 275 275 272 270 272 283 278 276 277 279 274 282 277 272 278 271 278 278 271 273 274 283 271 274 275 275 274 277 278 280 282 281 281 280 280 282 282 281 280 278 278 278 277 278 279 280 279 277 274 274 273 273 274 274 274 274 273 273 273 274 274 273 272
285 283 282 281 277 278 286 292 295 290 287 281 280 278 273 278 275 270 278 272 273 275 279 273 280 276 279 275 274 273 280 275 273 274 276 276 284 273 275 270 273 275 268 271 271 278 271 269 274 273 272 276 277 280 280 280 280 281 281 281 281 280 278 278 278 278 279 279 280 279 278 274 275 276 276 274 273 273 273 272 272 273 272 272 271 270 270
284 281 280 277 279 284 288 289 285 283 280 276 275 275 274 271 271 270 273 271 271 270 274 274 274 272 277 276 276 273 276 275 270 275 275 271 275 273 268 267 275 268 268 268 270 266 266 266 271 272 273 277 278 279 279 277 278 279 280 279 279 279 279 278 278 277 273 275 275 276 275 273 272 273 274 274 274 273 274 272 269 269 266 266 268 266 258
285 283 282 284 285 286 285 282 279 277 276 277 273 270 272 271 271 266 269 269 270 271 268 275 273 274 271 276 275 277 273 272 271 274 272 269 278 270 266 265 268 266 265 270 266 262 267 266 268 266 274 277 278 277 273 274 276 277 277 275 275 276 276 275 275 275 273 275 276 275 274 269 268 269 263 262 265 267 265 263 264 258 259 256 254 254 255
291 289 288 283 281 279 280 276 277 275 271 271 269 267 269 266 269 270 267 268 263 265 267 267 268 279 276 275 271 271 274 278 275 274 270 269 275 270 267 267 266 262 268 263 261 263 260 262 262 269 275 276 276 275 274 274 272 270 269 269 269 270 270 272 273 274 269 269 271 268 261 259 252 249 250 253 255 252 250 251 253 252 252 252 253 253 253
287 285 280 277 277 276 278 270 277 271 269 270 269 265 266 266 267 264 261 265 260 262 269 273 272 274 271 275 275 274 273 276 279 269 268 270 267 267 270 265 267 269 269 263 264 261 262 260 265 270 272 272 273 268 265 266 265 266 268 266 263 263 266 266 266 267 267 257 253 251 251 251 251 251 248 248 251 256 250 250 251 252 252 252 252 252 251
280 276 275 274 272 276 274 267 274 269 267 268 272 266 267 265 269 267 269 267 265 267 268 271 273 272 271 269 270 273 278 269 276 272 270 271 266 270 266 265 268 267 266 265 265 262 260 261 268 268 269 269 267 259 257 257 257 260 262 264 263 260 261 264 265 263 259 253 252 252 252 250 252 251 249 249 250 249 251 251 251 253 252 251 252 252 253
277 275 273 270 268 272 269 267 268 265 268 270 266 267 269 270 270 270 267 261 264 266 272 272 273 273 270 269 273 273 273 270 270 271 273 271 267 267 268 265 265 264 267 265 265 266 268 271 272 274 269 263 256 254 254 254 255 254 258 260 259 256 255 255 254 253 253 253 253 252 251 251 251 252 251 250 249 250 251 251 251 252 253 253 252 250 251
276 275 272 272 269 271 269 264 264 266 266 265 267 271 272 271 266 267 265 263 268 269 271 269 273 273 273 268 268 267 266 270 270 272 271 266 268 269 272 267 265 267 265 264 265 266 268 272 271 259 252 253 253 252 252 253 252 252 253 253 253 253 253 252 251 252 252 253 253 252 251 250 250 250 250 250 250 250 249 250 250 251 252 251 250 250 250
273 275 273 267 267 270 268 268 264 261 260 261 260 260 263 264 271 268 267 264 270 273 273 272 269 268 269 268 268 268 264 267 271 270 270 268 267 262 265 265 264 267 267 265 267 270 270 263 257 254 253 251 250 251 251 251 251 250 250 251 251 251 250 250 250 250 251 250 250 250 250 249 249 250 250 249 249 249 248 248 249 249 250 249 249 249 249
275 273 271 269 269 268 266 265 268 269 264 260 258 262 266 271 268 266 264 263 271 271 271 270 267 269 265 269 268 270 266 271 266 269 269 266 264 263 264 261 263 262 265 267 268 266 263 256 253 251 251 252 251 251 251 250 250 249 249 249 249 249 249 248 248 249 248 250 249 249 249 250 249 249 249 250 249 248 248 247 248 248 248 249 249 248 248
273 271 269 267 267 267 263 261 267 266 262 259 261 263 261 265 264 264 263 265 265 270 271 274 273 270 267 266 264 267 266 269 268 268 263 264 265 265 263 258 261 263 260 258 259 258 253 252 253 252 252 250 252 250 250 249 250 249 248 248 248 248 247 248 248 248 248 248 249 249 249 250 251 250 250 250 249 249 248 247 246 246 246 246 248 248 247
273 270 267 266 266 267 267 266 267 264 263 266 261 261 260 263 263 264 261 265 269 267 263 263 266 264 264 263 265 263 266 269 267 266 265 263 264 263 262 261 260 261 259 257 254 254 254 253 252 251 250 250 250 249 248 249 249 248 249 249 249 248 248 247 247 248 248 249 249 250 249 248 249 249 249 250 249 249 249 247 245 244 244 243 243 245 247
268 267 267 266 264 265 264 264 263 262 261 261 261 260 262 262 260 259 260 263 269 270 265 261 263 264 264 264 266 265 265 264 264 266 263 264 264 260 258 258 258 257 256 257 256 253 251 251 251 250 250 249 250 247 247 246 246 245 245 246 246 248 248 248 248 248 247 247 247 246 247 247 248 249 250 250 251 250 249 247 245 243 243 242 241 241 242
Wind_Speed
9 8 7 6 5 4 3 10 17 19 18 10 5 5 7 10 7 5 7 13 17 14 12 8 5 9 4 6 1 3 1 4 4 6 1 2 2 1 1 3 3 3 2 1 3 7 3 9 8 3 4 4 5 2 2 7 7 4 1 4 2 4 2 2 2 1 3 2 2 1 1 1 1 2 1 4 8 6 5 1 2 4 1 1 0 3 4
10 9 8 7 7 7 5 6 11 17 22 11 9 9 4 5 3 2 0 11 12 14 11 13 14 7 1 9 7 1 3 6 4 4 4 5 3 4 3 1 2 1 1 2 5 5 1 3 7 3 3 3 2 1 4 6 6 4 7 7 8 5 4 6 2 1 2 2 1 1 1 1 3 2 2 2 2 3 2 5 1 0 7 4 3 11 5
9 11 10 7 7 7 5 9 11 11 13 5 8 6 4 4 1 2 3 6 8 13 7 10 8 11 8 7 13 6 2 4 7 9 8 3 4 3 3 3 4 2 1 2 1 4 7 0 3 2 3 2 0 4 5 0 2 1 2 3 7 3 3 8 8 12 10 8 9 10 9 9 2 1 2 3 7 7 3 4 2 8 2 7 3 10 2
7 9 11 10 7 7 7 7 10 12 13 9 3 3 5 4 3 1 1 3 5 5 2 1 10 12 12 9 8 9 7 0 2 7 4 8 3 2 4 2 4 3 3 3 4 4 1 3 2 4 3 3 1 1 4 2 1 2 4 5 6 3 1 5 9 11 13 5 1 2 4 4 6 3 5 5 3 5 4 2 3 10 3 9 11 9 1
8 8 9 12 12 9 7 6 10 10 10 10 4 2 2 1 5 5 4 1 5 3 2 2 4 11 11 8 5 11 12 3 1 7 5 5 7 2 2 4 5 4 6 8 5 4 3 2 2 4 5 1 0 2 3 4 4 1 2 6 5 2 1 6 5 6 4 4 1 2 1 1 2 3 5 5 6 6 9 10 10 6 2 11 7 6 5
8 8 9 9 11 10 8 8 9 9 8 7 3 1 2 3 1 4 1 4 5 9 8 7 5 2 9 7 4 10 12 9 7 1 2 3 6 6 1 3 11 8 11 6 4 6 8 5 8 2 1 3 0 1 2 2 0 3 1 2 3 4 6 4 3 7 9 5 3 7 3 6 6 9 12 13 13 11 15 13 9 9 11 15 5 7 6
11 9 9 9 9 9 9 9 8 8 7 5 3 1 1 1 1 2 1 3 1 5 1 3 6 6 8 5 7 9 13 15 10 5 3 3 4 10 7 11 14 13 9 8 7 7 4 9 6 5 6 6 4 2 1 0 4 2 2 1 1 3 5 3 3 7 7 7 5 6 9 6 6 10 14 16 14 15 15 13 13 12 10 8 1 4 10
12 11 10 9 9 9 8 9 10 9 7 4 5 3 0 1 1 0 3 4 3 2 1 3 4 8 5 6 7 9 11 13 5 1 6 3 4 3 10 12 10 11 10 11 10 13 15 6 9 5 5 3 3 4 5 3 2 1 3 3 2 4 2 5 3 5 8 6 2 4 8 8 11 13 14 11 4 5 10 11 4 4 5 7 8 8 13
12 12 12 11 10 10 9 9 10 10 6 4 3 2 2 2 1 1 4 1 1 2 2 1 5 3 3 5 2 2 5 11 9 4 2 10 7 8 17 10 7 8 11 13 17 11 5 3 3 4 7 8 4 5 4 6 5 3 3 2 1 3 3 4 2 5 3 2 6 5 3 2 8 15 15 6 7 8 9 7 6 8 10 8 6 9 12
13 12 11 11 11 10 10 10 10 9 5 5 2 3 1 2 1 1 2 1 0 3 1 1 1 5 4 5 0 2 3 2 6 3 2 2 1 5 10 6 8 2 8 14 12 1 1 2 5 4 4 3 3 1 1 6 9 7 6 2 6 6 5 5 3 5 7 2 2 3 2 2 9 21 17 13 15 11 3 3 6 12 10 7 8 14 9
14 13 12 11 10 10 11 11 10 6 4 5 4 2 2 3 2 3 3 2 1 4 3 2 5 1 5 3 3 1 1 2 3 8 1 1 1 6 2 8 7 3 7 3 2 7 9 9 6 4 5 4 3 1 3 2 1 5 9 3 2 5 7 5 5 5 2 2 1 3 3 9 17 3 7 19 16 15 11 8 12 10 8 6 6 5 2
17 16 15 13 11 11 10 11 10 7 3 3 5 4 3 3 5 4 3 3 2 4 5 5 7 2 1 3 4 5 5 3 3 0 2 2 1 3 2 1 5 2 1 6 12 12 9 5 7 6 7 6 5 4 3 5 2 2 1 5 6 8 7 5 2 4 3 3 4 3 11 18 1 3 6 2 10 11 15 13 5 4 7 5 4 2 2
18 18 16 15 14 12 12 11 11 9 5 4 3 5 3 1 5 4 4 3 4 5 5 3 3 3 1 1 1 2 1 4 5 5 3 4 2 1 0 2 5 2 9 11 11 8 6 3 6 3 2 2 4 5 6 4 3 3 3 2 6 7 8 3 1 4 4 4 5 7 9 1 4 6 3 4 8 4 3 5 7 8 9 10 7 8 10
19 20 18 17 16 14 13 13 12 10 7 4 4 3 4 3 5 4 3 3 3 3 2 3 1 3 4 4 3 0 2 3 2 1 5 0 5 5 1 1 1 6 9 9 6 7 5 2 1 2 1 2 2 1 3 6 5 3 3 3 2 8 4 5 6 5 7 6 11 12 4 5 4 1 2 6 5 7 7 7 7 9 8 8 7 9 13
18 19 20 20 18 17 15 14 13 11 10 7 6 4 4 1 4 5 2 2 3 1 3 7 3 8 5 3 4 3 2 2 4 1 4 2 3 1 0 1 3 4 3 5 1 2 3 3 2 2 1 3 4 5 3 2 2 2 1 2 1 1 10 5 9 6 9 6 5 2 2 11 8 3 3 0 3 6 4 4 6 5 1 8 10 11 14
11 16 18 20 20 19 18 17 15 13 12 10 6 4 3 2 4 5 4 4 3 5 5 7 4 3 5 4 4 8 6 4 3 2 2 1 1 1 1 0 1 1 3 4 2 4 3 5 5 7 6 6 1 5 3 3 2 1 3 2 4 4 3 1 5 1 3 3 7 6 7 6 3 2 2 0 1 8 5 1 8 5 7 11 11 10 7
14 13 16 21 21 21 21 20 18 17 15 13 6 6 3 4 3 4 4 1 3 6 2 4 3 4 4 1 1 1 3 6 6 4 3 3 3 1 1 1 1 2 1 5 2 4 2 2 1 1 1 2 4 6 2 2 3 2 3 5 4 3 1 4 2 3 5 4 5 7 3 5 2 2 1 3 3 6 4 3 8 3 7 6 7 8 7
15 14 13 15 19 21 22 23 22 20 18 16 9 6 4 3 4 6 4 4 4 3 2 3 4 2 4 4 3 1 4 3 4 3 2 1 4 2 3 2 2 1 1 4 3 4 5 4 6 4 5 2 3 2 7 5 5 5 6 6 5 3 2 3 9 7 7 9 5 2 6 3 2 5 4 4 2 6 5 10 7 3 5 5 8 7 7
17 17 15 14 18 22 22 22 21 21 20 18 7 5 1 5 5 5 5 3 3 4 3 1 1 2 1 3 2 2 1 1 2 5 2 1 4 3 5 2 2 4 5 6 1 4 6 5 2 2 5 4 2 6 2 5 7 3 6 5 2 2 3 3 1 6 9 6 7 8 5 5 7 1 7 6 5 2 10 5 2 10 6 7 7 8 5
19 18 18 18 17 18 22 23 20 20 23 21 11 6 3 8 8 10 7 5 2 3 2 3 3 6 3 4 3 1 0 1 1 3 5 6 1 8 3 2 3 4 2 3 6 4 5 6 6 2 2 5 3 4 3 4 3 9 4 4 4 9 7 5 7 2 3 1 5 5 9 3 11 12 2 3 4 7 4 2 0 3 8 10 8 7 7
19 19 19 19 17 17 19 24 24 22 22 23 14 6 3 3 6 4 2 6 5 2 5 2 2 5 3 4 5 4 4 5 3 3 3 2 7 6 7 7 7 5 6 6 8 4 4 2 2 3 3 5 4 5 5 3 2 5 3 5 3 3 4 3 4 5 6 8 9 9 6 4 13 16 10 7 10 6 6 8 4 2 4 8 7 8 9
19 20 20 18 17 17 18 19 24 27 24 24 17 7 6 5 6 4 3 4 3 5 3 1 2 3 4 3 4 5 6 3 4 2 3 2 2 2 1 2 7 5 3 4 5 2 3 2 2 3 2 1 4 5 2 5 4 2 4 2 1 6 8 6 7 5 9 9 7 3 1 8 11 9 4 8 8 5 8 6 8 7 6 5 6 9 8
20 20 21 20 18 18 18 17 19 23 23 24 17 8 7 7 5 4 6 3 1 1 0 0 0 0 0 1 3 6 4 1 3 3 3 4 2 1 2 3 4 1 1 0 6 5 5 7 5 5 2 2 8 3 0 3 3 1 5 5 4 3 3 3 4 5 3 2 4 1 1 2 6 5 3 7 5 2 4 5 4 5 6 10 9 8 8
22 21 21 21 21 22 21 21 18 16 19 21 15 8 6 9 9 7 3 2 4 3 2 1 1 6 7 7 8 2 2 1 4 5 2 3 3 2 2 2 0 2 1 2 1 5 5 3 3 2 3 5 6 3 7 6 5 4 2 2 1 2 2 1 3 3 1 7 1 7 6 2 5 11 6 1 1 6 6 4 5 5 7 8 8 7 9
22 22 21 20 21 21 21 20 20 22 22 22 16 7 7 4 6 10 10 6 5 5 5 3 10 10 3 3 2 2 5 5 3 5 3 3 4 4 4 2 3 3 3 3 1 8 3 4 0 1 4 7 7 5 3 4 5 5 4 5 1 4 4 2 4 2 5 6 2 2 2 3 6 8 8 7 10 7 6 7 6 4 4 6 7 3 1
23 22 22 22 21 20 20 21 22 23 22 23 18 10 10 9 9 7 7 4 3 3 5 7 3 2 3 2 3 7 4 8 8 5 5 5 4 4 5 2 3 3 5 2 1 5 5 3 2 1 5 6 3 5 3 5 3 1 6 9 6 3 3 4 5 6 2 3 1 0 3 2 4 6 7 9 8 7 5 6 6 4 5 5 1 4 6
24 22 20 21 21 20 21 21 20 20 22 22 14 8 8 7 10 12 10 8 6 3 4 8 3 1 1 7 3 2 3 6 6 6 4 3 3 3 4 5 6 3 4 4 3 5 4 3 2 4 3 4 3 2 2 1 3 3 3 4 2 5 6 3 3 1 6 8 6 7 3 3 7 9 13 13 12 7 5 2 3 4 6 6 6 7 5
24 23 22 22 21 22 21 21 21 22 22 23 13 8 7 9 10 11 9 10 11 5 3 1 1 4 2 1 5 6 6 7 9 8 7 4 4 5 6 7 5 5 2 5 1 0 1 4 6 2 1 1 2 1 1 2 3 3 3 7 6 8 11 7 7 10 6 3 9 10 9 6 7 9 11 11 8 5 6 8 9 8 8 8 7 7 5
23 22 20 21 21 21 21 23 21 21 22 16 6 7 6 8 9 10 11 9 7 5 4 2 1 1 4 5 2 4 4 7 7 9 8 6 5 6 7 8 7 5 4 3 3 2 3 3 3 5 3 6 6 2 2 1 2 6 9 9 7 10 5 10 12 2 0 5 9 11 7 8 7 7 6 7 7 8 10 10 9 10 9 7 8 10 10
22 24 22 22 22 22 23 23 23 22 21 6 5 3 4 2 7 11 12 10 7 4 4 3 1 5 1 2 1 0 2 4 6 7 7 6 6 7 7 7 4 3 4 5 6 3 4 2 2 2 2 1 3 3 2 2 2 7 9 12 10 7 6 3 2 5 5 3 4 6 8 8 8 5 3 6 6 8 7 10 12 10 9 7 9 10 9
20 22 23 24 24 22 20 20 23 25 21 8 6 4 6 5 8 13 13 9 7 7 2 2 5 0 2 3 2 5 8 5 6 7 8 9 7 5 3 4 0 4 3 1 1 4 2 1 3 2 0 3 5 3 5 4 4 4 13 13 10 10 9 5 4 4 3 4 4 4 2 8 6 2 5 7 4 6 7 6 7 8 8 6 9 11 11
20 21 23 24 23 23 21 22 22 22 9 11 11 7 4 4 3 15 18 13 9 5 6 5 3 2 2 2 1 1 3 4 3 2 1 3 2 3 2 5 5 3 4 4 2 1 3 3 3 3 4 4 6 2 3 3 6 11 16 12 6 6 3 5 6 6 4 6 4 0 4 10 6 8 12 10 8 10 11 11 10 8 9 8 8 7 8
22 23 23 24 23 23 24 24 26 14 8 7 10 7 6 5 11 23 14 12 7 3 2 2 4 1 2 5 2 2 3 4 2 3 3 1 5 2 2 1 2 2 4 3 2 4 3 3 4 3 5 2 4 2 5 8 10 17 19 14 7 4 5 5 5 6 10 9 11 10 11 12 11 12 12 14 8 9 8 10 10 4 3 5 7 9 8
23 22 22 21 23 25 23 22 19 16 10 6 3 3 5 3 15 20 14 8 3 1 2 4 4 3 4 3 4 3 4 6 5 7 2 0 3 4 3 3 2 4 4 7 5 2 2 1 5 3 2 0 2 3 4 10 16 19 18 16 9 3 2 3 5 9 11 9 9 12 13 13 10 1 4 8 10 5 7 7 4 4 8 8 10 11 11
22 21 21 22 23 24 23 21 12 6 7 5 1 1 3 13 16 21 19 11 7 2 2 2 2 4 1 1 2 3 1 4 4 6 6 2 3 5 3 4 4 5 5 4 2 4 5 6 5 5 6 3 3 4 7 13 19 18 17 15 10 3 1 5 10 14 9 5 6 9 10 8 7 9 11 9 9 5 6 7 8 8 7 9 11 11 8
23 22 20 21 19 13 2 4 3 5 2 5 5 8 17 18 20 10 5 5 3 4 4 3 3 5 6 5 4 2 3 1 0 4 2 2 2 1 2 3 3 6 1 3 5 6 7 5 5 4 6 6 8 9 14 17 20 19 16 12 9 7 11 16 17 12 4 8 10 10 11 9 10 14 13 10 8 6 6 6 5 6 8 10 11 11 7
18 19 17 12 7 5 2 3 2 3 4 5 13 20 19 14 7 4 3 2 2 0 4 4 4 5 4 4 1 3 3 4 3 3 4 4 4 2 3 3 6 2 3 3 4 7 6 4 4 4 7 10 11 17 19 18 16 13 12 10 10 12 13 14 13 9 3 6 8 8 9 10 10 9 9 10 10 7 4 7 10 10 10 14 14 11 12
23 19 9 4 3 3 2 2 5 8 20 25 19 9 3 2 3 1 1 2 2 3 1 3 2 1 2 5 0 5 5 2 1 4 3 3 4 3 2 3 4 4 6 4 6 5 3 3 6 9 10 11 13 15 18 14 10 8 7 9 13 14 13 10 8 5 6 8 7 10 8 5 7 9 9 12 11 9 11 12 10 9 9 10 12 11 9
13 4 3 3 3 1 2 3 12 25 15 4 3 3 1 1 3 2 1 1 1 1 2 3 4 4 4 3 1 1 4 5 4 4 5 5 5 4 2 4 5 3 3 2 5 8 3 4 4 5 8 9 13 20 17 8 8 7 10 14 14 13 8 7 7 11 12 13 15 15 11 10 12 14 11 10 11 9 9 8 8 8 9 10 10 10 8
7 7 5 4 3 2 4 15 25 11 4 3 1 3 2 0 3 2 0 4 1 2 1 2 3 4 7 9 9 5 2 4 6 5 5 3 0 5 2 2 4 4 5 7 4 5 6 5 5 5 9 10 16 17 11 10 12 13 12 13 12 10 7 8 9 10 11 13 12 11 9 6 7 9 9 9 9 10 9 8 9 9 8 9 8 6 7
5 4 4 4 3 4 8 8 3 4 3 2 2 1 2 2 1 0 2 1 1 2 0 2 2 2 1 2 4 6 2 3 0 1 3 3 2 5 2 1 2 3 2 2 2 4 2 1 2 8 11 13 12 13 10 7 9 12 11 9 9 11 11 10 11 8 6 7 8 9 10 7 6 8 8 7 7 9 9 7 5 6 6 7 7 5 1
4 5 5 7 4 5 5 4 1 3 2 0 3 1 1 1 2 3 0 5 4 2 2 3 3 5 5 7 6 4 0 1 2 1 2 0 2 4 2 0 1 3 2 1 3 2 3 2 3 4 9 13 11 7 2 5 10 10 9 6 6 8 8 7 9 8 6 8 9 8 7 5 5 4 2 3 4 4 4 2 2 0 1 0 2 3 2
23 16 11 6 3 1 1 2 1 2 4 2 3 2 1 4 2 5 2 1 3 2 5 2 1 2 2 2 2 0 3 1 2 0 2 3 1 3 2 0 2 0 3 2 3 2 2 4 5 9 9 10 9 8 6 5 3 1 2 1 3 5 5 6 7 8 5 5 7 4 2 1 2 4 3 1 1 6 5 4 1 2 3 4 4 4 4
8 6 5 1 3 2 2 3 1 4 1 0 4 6 3 4 2 3 2 5 3 1 6 10 8 9 4 0 5 2 3 2 2 2 1 0 4 1 1 2 3 3 4 2 1 3 6 3 8 8 9 7 6 3 4 5 5 4 4 2 2 3 2 3 3 4 2 2 5 5 5 5 5 4 6 6 4 3 3 3 2 4 4 5 6 5 4
5 3 3 2 2 1 3 2 1 3 4 3 3 2 5 9 8 8 10 4 4 7 3 5 8 7 6 2 3 2 2 2 1 5 3 3 2 1 3 3 1 2 3 2 1 2 2 4 8 7 8 8 1 4 5 6 6 5 7 6 5 6 6 4 4 3 2 3 2 3 4 3 5 5 6 5 4 2 4 5 3 5 5 7 7 6 4
4 4 3 4 3 1 2 1 2 1 1 2 4 6 8 8 8 9 3 2 4 3 8 7 7 7 5 1 5 4 2 3 3 2 2 2 4 3 3 0 2 2 1 2 4 8 11 10 10 10 2 1 4 6 6 5 6 6 5 4 6 7 6 4 3 3 3 3 3 5 4 3 4 5 5 5 5 5 5 3 3 5 6 8 8 6 4
4 2 2 2 3 1 2 3 4 3 2 3 3 6 7 5 2 3 2 2 6 5 7 3 4 4 8 2 2 2 1 0 2 2 4 2 3 0 2 3 2 3 4 4 4 5 7 10 4 2 3 4 5 5 6 7 6 7 6 4 5 5 5 3 3 3 1 3 4 5 4 4 4 5 5 7 7 7 4 4 3 2 5 8 7 7 6
4 1 3 3 3 3 6 3 2 1 2 2 1 2 1 1 7 2 0 1 6 7 9 6 5 2 4 2 4 4 2 0 1 2 2 2 3 4 0 1 2 2 2 4 9 8 6 1 1 3 4 3 3 5 5 7 7 7 6 6 6 5 5 4 3 3 2 2 3 4 4 4 4 4 6 7 7 6 7 5 5 5 7 7 6 6 6
3 2 2 2 1 1 2 1 5 4 2 4 2 1 3 5 3 2 2 0 7 6 5 7 4 5 1 0 3 2 1 2 3 3 3 1 2 3 3 3 2 2 5 6 7 2 1 1 2 2 3 4 4 5 4 3 4 5 5 5 5 5 3 3 3 3 3 4 4 4 4 4 5 6 6 6 8 6 5 6 5 5 5 5 6 6 6
4 2 3 3 3 4 0 1 5 2 1 2 1 2 0 3 5 1 1 2 3 7 2 6 3 5 1 3 1 1 1 1 3 1 3 2 2 1 3 0 3 5 3 1 3 0 1 2 2 3 4 4 5 5 5 5 4 4 3 3 2 2 3 3 4 4 4 4 5 6 4 5 5 4 5 7 6 5 7 7 6 6 5 4 5 6 6
2 3 2 2 2 3 5 4 7 5 4 3 1 1 1 4 3 3 1 3 6 5 4 3 1 3 2 2 1 1 3 1 3 3 5 4 2 3 4 4 5 6 3 0 1 2 2 3 2 2 4 4 3 4 3 3 4 3 3 3 2 2 3 3 4 5 5 4 4 6 7 6 5 6 6 6 7 8 9 8 6 5 4 4 4 5 6
2 3 2 2 4 5 3 4 5 4 2 1 3 1 0 1 2 2 3 1 6 8 5 2 4 2 2 3 3 1 1 3 2 1 1 3 2 5 4 5 2 1 1 2 1 2 2 2 3 3 3 4 4 4 5 3 2 3 3 3 2 3 3 4 4 5 5 6 6 6 6 5 5 6 6 6 6 6 8 5 3 3 4 3 3 4 4
Wind_Direction
88 89 90 93 103 102 121 202 204 193 165 150 163 116 155 184 206 359 176 165 159 167 203 195 198 212 235 69 39 126 141 176 187 171 213 177 144 70 186 191 146 253 149 198 154 163 191 164 202 171 180 241 206 245 125 136 141 75 33 63 244 119 116 136 300 307 309 305 290 268 196 135 319 279 66 145 198 199 218 230 163 166 174 180 1 235 270
94 90 88 89 99 104 106 147 166 161 158 163 140 162 158 163 133 136 179 187 171 181 195 198 201 190 43 200 210 56 180 167 165 193 188 167 164 172 163 16 230 159 121 138 181 185 192 207 166 260 198 212 110 344 148 173 176 152 208 149 193 151 234 136 119 9 344 337 333 313 336 63 207 204 215 168 109 70 120 103 61 253 216 217 130 252 260
97 99 90 90 98 105 90 111 101 65 29 42 148 156 141 115 67 70 175 212 208 200 195 206 188 200 200 171 191 179 199 228 195 170 189 156 162 127 211 172 149 137 152 181 73 192 192 59 243 110 185 212 80 355 66 162 134 276 245 151 162 157 172 152 190 213 218 215 193 214 213 212 216 222 169 222 165 139 114 227 169 238 156 154 209 251 237
100 109 114 110 106 114 115 86 66 56 37 13 87 144 113 173 163 164 72 217 224 254 51 161 190 203 206 207 201 188 199 167 274 177 198 176 169 162 130 29 122 139 141 178 200 213 207 173 202 169 204 238 6 295 346 44 129 281 119 105 115 157 137 196 210 206 229 232 206 313 99 85 187 233 177 207 180 209 184 88 187 223 164 200 230 232 124
121 120 120 119 124 127 119 83 75 64 50 40 83 35 128 82 127 152 163 75 258 251 201 180 168 205 185 216 158 205 209 168 258 202 198 200 157 113 147 143 152 226 181 195 207 194 204 152 144 207 171 252 232 342 111 75 46 127 66 355 75 82 215 226 229 253 225 140 163 230 112 120 226 191 249 221 199 175 181 203 230 136 160 248 227 119 175
126 129 130 129 131 131 129 106 81 73 47 32 53 56 9 142 235 115 206 137 202 212 237 205 194 298 184 216 165 198 201 190 202 122 262 135 166 156 322 184 201 180 189 169 190 187 214 173 223 113 230 99 324 44 16 84 299 107 75 353 119 144 218 227 163 259 265 254 225 159 168 214 213 217 230 236 224 202 207 218 219 164 214 243 231 169 207
139 138 133 133 132 130 127 116 104 90 73 56 91 68 287 87 59 102 16 147 334 198 35 170 195 221 200 201 182 199 197 207 200 154 156 148 210 194 199 211 207 204 188 171 201 180 174 229 210 167 193 180 140 163 2 321 44 103 90 83 168 114 233 235 167 240 250 245 220 170 194 201 219 227 228 228 219 212 209 218 219 207 226 251 117 166 226
155 150 150 145 140 135 131 131 126 118 96 78 73 40 61 338 20 140 13 65 110 57 101 156 189 217 205 219 211 207 201 209 162 172 155 170 215 179 219 219 184 197 187 186 203 202 204 196 196 201 144 216 180 199 185 139 358 22 148 140 283 144 278 124 150 216 238 227 138 195 202 205 227 237 236 224 202 202 206 217 189 90 277 264 254 248 260
170 166 162 161 155 150 146 143 143 142 136 60 86 63 40 93 48 330 105 93 325 54 39 130 201 229 207 230 262 71 206 219 192 212 204 190 187 177 208 203 144 186 186 198 216 209 179 115 175 177 172 202 212 153 257 134 140 147 125 164 198 155 237 69 140 212 250 201 179 201 197 249 240 248 236 147 164 208 209 195 189 188 213 217 220 247 253
181 178 174 169 165 160 154 148 155 157 112 107 113 115 156 68 307 59 78 56 191 150 213 159 87 226 214 206 311 181 217 72 145 214 34 40 49 190 201 160 141 168 187 212 220 90 75 48 111 108 52 54 15 17 173 171 163 170 185 131 151 179 145 159 172 216 226 19 122 162 125 263 271 246 230 186 209 214 78 181 207 212 201 200 210 234 242
189 186 184 182 176 173 163 156 163 160 117 135 118 140 149 142 127 48 43 127 311 150 135 205 166 232 108 161 248 22 110 164 190 177 250 51 29 351 172 151 152 154 200 208 66 96 97 101 100 71 67 57 59 42 118 69 75 167 160 144 214 146 166 191 168 216 154 13 102 121 139 222 237 322 166 182 207 212 210 213 210 213 177 205 209 244 88
195 192 189 188 186 185 178 171 172 170 120 154 115 131 190 134 87 84 96 195 252 149 179 215 178 243 116 202 196 221 233 194 225 139 244 126 283 360 67 91 102 226 217 118 104 99 104 78 68 60 58 53 57 47 84 162 31 14 107 142 165 178 188 198 154 147 188 73 90 160 213 233 23 290 336 223 209 200 214 230 258 216 218 235 269 279 226
197 197 195 192 191 193 190 185 183 174 119 123 101 140 210 174 109 118 131 156 248 159 183 246 202 218 178 149 207 241 239 216 202 203 232 225 284 23 271 156 178 186 134 129 122 105 83 99 57 89 36 26 28 52 46 47 24 8 54 80 158 172 176 144 54 111 53 105 180 215 237 18 301 337 358 35 76 61 73 322 264 233 213 210 210 231 233
205 199 200 197 194 196 198 194 189 179 140 112 90 112 141 159 110 103 132 126 245 166 189 301 105 233 189 217 195 167 91 55 8 185 196 1 202 196 241 24 303 144 153 126 96 103 72 42 356 134 260 55 356 243 181 72 33 23 16 19 29 185 130 156 205 171 179 194 195 228 360 307 212 13 263 167 157 173 160 231 254 226 199 173 192 218 242
221 207 201 201 200 198 199 203 199 183 156 113 101 85 112 94 110 130 169 95 221 9 179 220 201 211 183 210 181 190 144 161 154 250 25 15 73 354 152 358 320 162 196 118 68 48 149 121 89 137 322 112 209 227 68 265 113 26 22 311 342 148 185 210 205 223 156 161 191 302 268 246 241 210 210 94 158 136 163 141 276 273 216 176 179 209 231
240 230 214 203 204 202 200 201 200 192 166 124 94 117 144 125 94 85 118 144 137 252 229 207 112 135 180 201 190 197 202 165 171 99 52 37 336 26 10 15 335 355 50 74 94 121 171 155 193 170 196 187 222 82 263 127 325 115 40 353 100 34 91 54 201 226 68 196 214 210 209 252 131 220 169 209 155 125 106 83 281 265 184 199 177 203 226
240 240 233 215 202 205 204 202 200 195 176 145 136 139 183 187 125 131 112 57 149 214 63 98 126 103 92 85 47 313 190 200 153 175 188 211 163 133 29 70 353 80 165 95 184 115 132 93 51 103 343 137 133 198 64 67 158 324 7 38 64 75 32 137 193 196 205 162 227 231 235 234 320 158 148 175 137 112 78 326 275 262 199 185 160 191 203
238 232 236 236 216 205 206 204 202 195 183 162 145 159 178 173 147 105 69 118 145 275 222 194 107 180 183 190 164 242 71 67 60 46 78 104 105 149 177 139 80 279 134 131 186 163 175 150 171 183 202 208 154 111 199 163 164 198 181 161 158 173 276 212 212 215 223 229 254 353 285 260 159 171 142 161 139 81 97 230 234 229 188 183 176 194 198
235 233 227 227 233 219 210 209 203 198 191 175 134 90 31 168 180 117 117 118 120 209 254 294 166 159 200 69 129 157 170 144 153 125 177 114 231 186 133 217 171 170 187 182 200 193 178 227 56 131 167 233 130 201 160 126 195 54 126 94 67 333 98 327 103 217 228 236 244 245 268 229 154 278 156 172 94 183 215 237 195 151 193 199 188 188 177
237 234 231 226 224 225 221 215 210 202 193 181 152 172 179 169 188 170 154 158 157 197 243 178 167 193 195 150 177 139 189 68 290 138 186 195 136 116 97 139 289 98 357 148 207 207 192 198 178 137 81 177 219 152 34 246 87 158 174 225 151 188 142 207 189 225 63 144 239 268 260 261 123 122 40 298 155 236 177 150 276 183 170 165 205 193 198
237 234 229 226 225 223 223 220 209 199 188 183 166 146 115 182 186 195 136 134 124 174 285 242 124 203 184 188 193 170 160 189 179 159 239 144 192 156 184 206 177 146 186 175 187 193 157 218 152 181 220 138 217 83 187 156 317 270 125 191 186 206 93 247 248 184 167 193 202 216 220 128 154 143 181 205 209 187 156 131 175 209 158 180 178 218 197
238 235 228 222 224 221 221 218 216 210 193 179 167 159 175 178 174 159 129 94 125 178 206 228 190 204 217 202 195 184 171 173 202 156 127 163 301 187 259 83 155 152 193 116 63 32 2 144 49 96 189 228 17 172 199 115 218 228 0 116 299 221 180 183 186 211 154 197 210 225 190 162 190 174 170 199 203 148 176 145 166 171 231 191 181 206 204
239 234 231 225 219 223 220 218 214 209 203 186 167 177 165 142 167 159 136 152 9 52 53 357 61 275 168 288 227 204 229 173 132 101 144 123 236 297 159 173 187 112 76 7 168 154 160 137 196 153 54 215 175 177 329 140 214 190 164 248 199 328 147 179 86 269 253 265 183 141 1 217 204 251 212 200 205 161 144 164 153 223 190 169 188 212 192
240 235 233 231 222 215 218 214 205 208 206 196 173 165 163 157 157 129 126 167 176 247 284 169 28 253 208 240 243 209 103 116 186 195 175 167 179 259 349 267 209 49 347 232 183 132 187 113 202 116 164 232 94 123 182 252 221 189 79 301 278 243 140 132 192 269 281 270 116 150 185 160 190 211 230 263 260 207 196 205 219 206 178 198 218 196 187
238 239 232 229 229 222 217 216 208 202 204 206 194 167 120 127 156 159 155 160 174 175 227 199 224 231 205 191 80 100 214 194 160 174 153 153 179 177 204 224 160 157 213 181 137 74 42 111 194 87 181 250 129 227 273 122 286 160 167 258 27 308 174 102 242 238 190 250 173 214 342 227 211 205 213 236 243 231 208 213 221 215 186 195 210 172 132
227 228 230 224 222 222 219 216 214 212 208 205 186 164 172 171 169 150 146 116 101 140 214 248 252 56 123 109 220 213 185 174 183 178 189 194 181 197 154 105 34 35 93 71 42 119 123 67 95 139 157 273 102 146 227 200 179 239 177 212 203 187 117 211 193 193 245 86 32 343 18 336 269 255 251 241 235 234 220 214 221 218 203 224 201 189 187
232 224 224 227 221 218 218 216 211 214 209 205 191 168 167 151 160 164 169 160 129 335 228 242 175 128 158 199 220 81 113 162 181 171 172 139 137 101 115 130 115 84 95 49 23 111 58 98 134 215 179 228 116 168 139 58 139 160 215 252 128 96 231 200 86 188 242 195 193 156 128 245 239 228 229 233 235 221 228 212 238 230 223 218 209 236 217
230 223 217 219 217 215 214 211 210 209 208 200 178 176 162 166 182 182 173 167 183 181 174 138 188 229 128 340 240 190 187 161 168 172 171 175 144 141 141 148 125 109 111 110 70 84 129 170 238 224 71 280 84 303 119 332 52 22 271 240 188 174 217 157 191 210 241 169 185 191 209 232 218 209 220 225 231 188 208 225 225 228 222 212 202 224 243
229 224 222 222 219 214 215 217 211 210 210 201 143 174 189 190 186 191 185 192 159 100 86 133 353 26 175 241 82 168 199 150 164 169 175 167 161 162 156 163 160 152 97 76 114 109 151 212 136 142 181 212 101 266 84 178 189 219 227 223 189 226 191 185 219 147 134 196 177 195 195 216 243 237 215 220 209 189 213 228 228 228 224 208 205 215 220
227 227 217 216 219 214 213 211 209 209 211 170 120 128 174 260 197 183 193 188 164 124 144 142 147 247 328 30 278 286 100 156 157 165 171 162 172 177 175 158 167 153 130 158 163 181 213 145 230 258 273 285 152 198 139 207 188 244 244 241 229 235 233 218 95 163 227 209 168 191 210 235 242 242 207 211 205 183 199 224 226 226 231 200 203 225 225
218 225 223 214 213 212 211 210 208 205 197 153 157 128 177 204 204 194 175 165 161 163 156 201 224 95 20 255 155 184 171 147 169 179 185 186 182 167 159 104 45 157 124 93 133 211 153 225 175 246 168 194 123 126 176 162 239 293 251 236 231 235 232 210 196 205 162 140 177 188 208 238 253 324 297 249 197 192 213 236 236 218 220 189 212 218 229
216 217 225 219 211 207 207 210 213 210 162 157 191 195 194 205 173 153 162 167 141 142 156 179 209 206 220 243 192 285 141 157 118 120 114 143 150 150 157 177 182 185 152 162 207 100 239 195 128 205 167 190 112 119 134 158 218 244 254 251 223 235 189 183 202 218 197 194 139 111 277 263 225 205 241 250 197 201 201 221 228 222 211 212 226 230 233
217 213 213 216 215 208 205 206 209 190 174 118 63 28 316 323 161 152 153 132 141 182 166 169 172 175 189 231 98 316 159 87 71 137 217 195 174 136 128 146 100 76 251 131 236 198 226 145 149 180 236 118 112 186 199 214 230 243 250 256 242 197 199 203 196 196 209 202 171 194 225 237 243 230 229 252 232 184 204 217 235 216 214 241 251 252 251
213 212 212 209 214 213 207 208 201 168 112 101 221 219 287 262 161 146 130 125 113 146 139 150 173 151 225 318 58 274 154 147 162 161 166 184 146 114 189 119 206 157 273 196 233 127 317 118 176 197 94 236 171 110 215 232 235 245 252 255 247 196 187 217 214 220 223 208 199 210 224 231 247 222 203 231 247 200 192 212 171 183 223 224 238 237 238
213 211 209 207 209 212 209 200 187 153 167 168 83 279 153 147 145 141 145 160 139 235 152 262 155 125 115 20 156 264 162 114 177 185 159 201 110 143 183 119 226 190 243 110 16 191 193 208 145 124 203 166 150 219 227 235 238 242 247 254 254 211 165 261 251 235 226 182 192 225 236 247 255 260 248 240 242 207 167 206 199 199 220 235 233 243 239
207 207 206 205 205 199 176 179 122 125 133 182 175 167 154 145 144 136 94 40 98 147 154 210 145 189 165 176 184 257 100 29 174 80 158 131 22 198 119 145 197 217 132 163 189 187 209 166 128 221 170 170 211 210 228 228 235 238 240 246 251 225 227 232 247 254 162 176 196 214 225 232 229 240 247 249 247 239 203 210 214 193 219 240 247 244 241
188 195 179 159 133 71 133 161 103 164 202 125 131 117 98 82 31 46 21 55 350 73 137 160 126 229 180 190 78 273 109 159 168 106 167 132 166 148 129 195 197 181 102 193 183 206 215 175 193 204 191 203 222 226 232 234 234 238 241 233 236 238 238 244 245 256 239 190 212 226 223 226 236 246 251 252 246 240 217 226 224 203 214 230 242 247 240
180 158 114 85 83 115 118 200 176 154 129 124 111 79 342 14 114 81 112 79 240 85 332 85 130 184 21 84 345 224 109 262 93 149 183 166 123 227 166 179 208 186 221 194 212 147 103 160 207 209 228 222 235 238 238 238 241 231 232 230 235 237 236 236 237 217 236 263 262 249 248 235 243 242 227 242 243 235 226 230 233 224 222 233 237 242 251
139 84 48 88 112 190 168 204 146 135 116 96 35 79 59 184 98 59 197 136 50 63 239 117 181 147 120 101 213 327 147 181 136 176 175 219 135 256 141 165 245 150 256 167 251 135 190 209 204 203 233 227 237 244 241 230 238 221 217 231 235 238 230 229 210 206 217 226 238 245 236 224 226 242 227 231 247 241 236 235 237 234 226 231 240 244 249
127 141 141 122 143 172 116 136 134 113 102 82 342 103 104 341 111 189 94 74 51 310 110 158 177 151 181 162 162 227 217 117 153 184 173 254 313 165 229 89 263 150 201 192 222 125 153 191 192 180 239 231 238 245 241 222 231 237 233 238 246 247 233 224 234 225 225 240 245 254 259 229 214 226 233 223 227 244 248 232 229 234 229 233 241 243 244
128 85 91 131 179 129 130 129 70 54 83 81 62 24 103 52 1 83 92 87 105 229 184 168 55 86 218 109 149 184 273 76 281 110 118 168 232 84 54 186 245 85 275 203 289 63 74 52 182 194 232 232 233 241 236 226 233 245 244 238 240 246 243 238 242 240 217 243 257 255 254 241 221 231 235 232 224 229 239 248 234 230 230 237 241 237 132
142 116 127 105 92 105 91 33 59 90 57 85 118 152 133 120 66 31 142 140 212 176 281 156 216 172 216 172 188 128 241 173 120 105 109 305 244 132 214 252 347 122 204 199 99 70 87 151 209 246 243 245 243 245 203 211 231 233 246 243 243 248 246 241 244 251 214 222 242 247 252 249 236 247 297 297 262 261 280 313 280 345 148 239 50 74 75
105 109 106 102 84 49 141 81 298 123 131 126 102 112 130 103 183 149 209 266 317 113 242 46 215 74 329 61 37 50 166 169 134 198 93 201 53 53 108 74 116 313 215 32 69 88 138 200 213 235 239 245 244 240 231 240 294 329 285 269 236 249 241 237 234 248 238 212 243 265 313 12 60 50 20 58 97 81 55 46 50 135 92 89 75 66 60
94 91 72 12 92 277 105 181 165 63 36 105 141 153 156 137 214 72 108 227 203 230 215 154 195 144 173 82 137 142 40 357 119 72 32 5 72 161 121 223 211 232 66 14 93 133 211 230 216 226 239 252 272 352 5 1 345 324 310 291 279 295 263 243 247 244 271 50 52 57 67 66 76 45 35 36 16 156 122 69 69 107 108 102 87 72 49
110 42 79 77 85 229 94 276 50 124 172 207 145 152 146 171 187 172 191 218 112 211 144 93 121 123 130 236 51 326 129 204 300 103 223 118 60 243 120 233 227 46 126 213 175 273 355 273 256 252 252 255 319 14 350 357 356 350 306 316 4 357 351 336 326 3 29 54 48 64 74 78 79 63 52 43 29 55 124 134 147 116 108 104 103 87 56
99 138 108 107 140 194 139 125 81 80 277 158 193 185 164 195 167 197 222 83 117 130 125 149 111 107 103 299 130 190 95 112 72 196 148 67 122 230 209 77 72 103 233 157 200 219 227 242 238 244 276 8 9 330 346 335 348 334 5 9 338 345 353 3 22 51 58 76 65 74 94 89 104 105 77 57 51 55 58 71 86 118 120 104 101 105 91
79 35 105 115 95 174 74 138 222 213 179 195 200 168 170 164 168 146 155 99 119 165 107 87 114 152 138 188 78 353 31 31 139 232 87 116 191 238 30 107 216 184 186 226 210 228 235 238 250 34 354 334 339 344 341 345 353 5 360 337 350 350 346 18 30 50 57 85 89 86 87 98 104 107 113 88 61 44 40 48 55 66 99 114 115 106 88
103 151 89 100 157 142 159 211 151 106 11 110 318 345 298 144 117 114 281 134 137 129 127 119 97 54 38 304 73 161 158 250 114 282 137 172 50 33 263 70 242 226 193 208 229 221 236 33 5 334 349 344 323 349 352 354 351 357 351 348 343 350 356 16 42 33 33 66 91 98 99 97 103 100 92 99 87 50 41 40 51 68 87 88 87 85 89
83 87 102 124 76 97 64 102 127 95 340 343 359 41 115 121 168 151 198 186 128 151 150 119 170 99 149 106 109 123 306 237 112 219 79 38 135 197 171 213 179 252 252 195 234 225 216 35 341 322 326 5 14 10 351 342 342 341 348 343 336 330 350 18 34 35 51 64 72 87 85 78 84 94 98 90 84 58 36 42 62 62 64 85 95 96 88
70 36 37 71 75 21 335 37 73 142 325 349 31 146 307 93 103 190 257 86 144 120 113 81 79 86 174 107 96 128 201 192 172 100 67 230 196 198 82 326 240 191 251 253 222 286 34 329 347 359 7 1 9 8 346 342 343 343 338 343 349 18 25 41 47 44 48 62 76 86 94 93 85 81 92 97 101 101 74 57 57 68 61 65 91 92 94
14 84 75 348 114 168 132 146 170 195 220 212 146 242 107 157 149 169 289 140 134 89 56 126 167 106 100 44 102 113 243 139 91 181 162 194 173 135 182 196 235 208 220 225 61 13 23 9 6 329 347 341 343 341 330 318 336 328 334 353 18 50 55 63 73 77 75 69 79 86 79 79 83 92 93 100 100 90 75 48 36 48 65 60 73 98 95
48 59 61 11 31 46 73 114 69 84 109 140 118 284 17 100 311 274 310 197 144 141 180 171 93 109 95 182 204 175 33 47 209 120 83 252 136 149 213 197 227 300 341 343 26 27 3 341 13 340 323 317 321 325 318 323 342 350 2 7 25 49 66 69 66 67 71 66 61 79 85 88 97 102 105 102 98 89 87 78 36 38 57 63 53 63 100